Weather History for KCGI - February, 2013

Change the Weather History Date:

Friday, February 1, 2013

  Actual Average Record
Temperature  
Mean Temperature 20 °F 34 °F  
Max Temperature 26 °F 44 °F 66 °F (1967)
Min Temperature 13 °F 25 °F -1 °F (1979)
Degree Days  
Heating Degree Days 45 31  
Month to date heating degree days 45 31  
Since 1 July heating degree days 2544 2769  
Cooling Degree Days 0 0  
Month to date cooling degree days 0 0  
Year to date cooling degree days 0 0  
Moisture  
Dew Point 7 °F    
Average Humidity 54    
Maximum Humidity 63    
Minimum Humidity 45    
Precipitation  
Precipitation 0.00 in 0.13 in 1.43 in (1990)
Month to date precipitation 0.00 0.13  
Year to date precipitation 3.58 3.60  
Sea Level Pressure  
Sea Level Pressure 30.45 in    
Wind  
Wind Speed 7 mph (WSW)    
Max Wind Speed 20 mph    
Max Gust Speed 25 mph    
Visibility 10 miles    
Events      
T = Trace of Precipitation, MM = Missing Value Source: NWS Daily Summary

Daily Weather History Graph

Daily Weather History Graph

Search for Another Location

Airport or City:

Trip Planner

Search our weather history database for the weather conditions in past years. The results will help you decide how hot, cold, wet, or windy it might be!

Date:

Astronomy

Feb. 01, 2013 Rise Set
Actual Time 7:01 AM CST 5:23 PM CST
Civil Twilight 6:33 AM CST 5:50 PM CST
Nautical Twilight 6:02 AM CST 6:21 PM CST
Astronomical Twilight 5:31 AM CST 6:52 PM CST
Moon 11:20 PM CST (2/1) 9:43 AM CST (2/1)
Length of Visible Light 11h 17m
Length of Day
10h 22m
Waning Gibbous, 70% of the Moon is Illuminated
Feb 1
Waning Gibbous
Feb 3
Last Quarter
Feb 10
New
Feb 17
First Quarter
Feb 25
Full

Hourly Weather History & Observations

Time (CST) Temp. Windchill Dew Point Humidity Pressure Visibility Wind Dir Wind Speed Gust Speed Precip Events Conditions
12:53 AM 18.0 °F 5.4 °F 6.1 °F 60% 30.40 in 10.0 mi NW 11.5 mph 19.6 mph N/A   Clear
1:53 AM 17.1 °F 5.8 °F 5.0 °F 59% 30.41 in 10.0 mi NW 9.2 mph - N/A   Clear
2:53 AM 16.0 °F 2.9 °F 5.0 °F 62% 30.43 in 10.0 mi North 11.5 mph - N/A   Clear
3:53 AM 15.1 °F 3.3 °F 5.0 °F 64% 30.44 in 10.0 mi North 9.2 mph - N/A   Clear
4:53 AM 12.9 °F 1.6 °F 1.0 °F 59% 30.47 in 10.0 mi NNW 8.1 mph - N/A   Clear
5:53 AM 12.9 °F 1.6 °F 1.9 °F 62% 30.49 in 10.0 mi NNW 8.1 mph - N/A   Clear
6:53 AM 12.9 °F 0.7 °F -0.0 °F 56% 30.51 in 10.0 mi NW 9.2 mph - N/A   Clear
7:53 AM 14.0 °F 2.9 °F -0.0 °F 54% 30.53 in 10.0 mi NNW 8.1 mph - N/A   Clear
8:53 AM 15.1 °F 9.4 °F 1.9 °F 56% 30.56 in 10.0 mi West 3.5 mph - N/A   Clear
9:53 AM 18.0 °F - 1.9 °F 50% 30.56 in 10.0 mi Calm Calm - N/A   Clear
10:53 AM 19.0 °F 11.1 °F 1.0 °F 46% 30.57 in 10.0 mi WNW 5.8 mph - N/A   Clear
11:53 AM 19.9 °F 12.1 °F 3.0 °F 48% 30.54 in 10.0 mi Variable 5.8 mph - N/A   Clear
12:53 PM 23.0 °F 15.8 °F 5.0 °F 46% 30.48 in 10.0 mi West 5.8 mph - N/A   Clear
1:53 PM 24.1 °F 17.0 °F 7.0 °F 48% 30.47 in 10.0 mi WSW 5.8 mph - N/A   Clear
2:53 PM 26.1 °F 18.4 °F 9.0 °F 49% 30.46 in 10.0 mi SW 6.9 mph - N/A   Clear
3:53 PM 26.1 °F 19.4 °F 8.1 °F 47% 30.44 in 10.0 mi South 5.8 mph - N/A   Clear
4:53 PM 25.0 °F 16.3 °F 10.9 °F 55% 30.41 in 10.0 mi South 8.1 mph - N/A   Clear
5:53 PM 25.0 °F 17.1 °F 10.9 °F 55% 30.40 in 10.0 mi South 6.9 mph - N/A   Scattered Clouds
6:53 PM 25.0 °F 16.3 °F 12.0 °F 58% 30.40 in 10.0 mi South 8.1 mph - N/A   Scattered Clouds
7:53 PM 25.0 °F 18.1 °F 12.9 °F 60% 30.39 in 10.0 mi South 5.8 mph - N/A   Partly Cloudy
8:53 PM 25.0 °F 18.1 °F 12.9 °F 60% 30.36 in 10.0 mi SSE 5.8 mph - N/A   Scattered Clouds
9:53 PM 26.1 °F 20.5 °F 15.1 °F 63% 30.36 in 10.0 mi South 4.6 mph - N/A   Mostly Cloudy
10:53 PM 26.1 °F 19.4 °F 15.1 °F 63% 30.35 in 10.0 mi South 5.8 mph - N/A   Overcast
11:53 PM 26.1 °F 21.9 °F 16.0 °F 66% 30.34 in 10.0 mi SSW 3.5 mph - N/A   Overcast